Find Starlink 31850

NORAD ID: 59903 Int'l Des: 2024-100 Owner: SPXS Country: US Constellation: starlink operational
LEOCIRCULAR

現在のビュー

3D地球を読み込み中...

About Starlink 31850

Starlink 31850 (NORAD 59903) is a starlink constellation satellite (v2 mini) launched May 28, 2024 by SPXS of US. It operates in LEO, CIRCULAR orbit with a mass of 730.00 kg.

Starlink 31850について

説明を読み込み中...

次回通過

Passes for default location (London). Set your location on the main map for personalized predictions.

高度履歴

Loading altitude history...

軌道要素

1 59903U 24100U 26197.19754902 -.00001681 00000-0 -51595-4 0 9992
2 59903 43.0024 119.3670 0001208 271.5714 88.5000 15.27579029120759
Epoch: Jul 16, 2026 • Age: 12 hours

現在のステータス

高度 482.4 km
遠地点 / 近地点 N/A
速度 7.63 km/s
衛星直下点 13.63°N, 100.78°E
打ち上げ日 May 28, 2024
運用期間 2.1 years
タイプ internet

技術仕様

分類 Payload
質量 730.00 kg
乾燥質量 700.00 kg
総質量 730.00 kg
長さ 0.30 m
直径 4.10 m
スパン 29.00 m
形状 Box + pan
製造者 SPXS
バスタイプ Starlink V2M
フェーズステータス In Orbit
所有者/国 SPXS/US

Most Searched